DMSP 5D-2 F13 DEB, 40527

Orbit data source: Space-Track

DMSP 5D-2 F13 DEB, 40527 is space debris in SSO originally from a launch on Fri, 24 Mar 1995 UTC launched from the Air Force Western Test Range (AFWTR). Debris objects in space refer to the collection of defunct objects orbiting the Earth. Examples of debris include non-operational satellites, rocket bodies, and fragments generated from explosions, collisions, or faulty payload assembly.

Loading next visibility...
Identifier
40527, 1995-015DP
Orbit
SSO
Country
Flag of USUS
Related business
Manufacturer
Unknown
Mission
Spacecraft
Bus & Motor
Unknown
Mass
Unknown
Launch date (UTC)
1995-03-24 (31 years ago)
Launch vehicle
Unknown
Launch site
Air Force Western Test Range (AFWTR)
Object type
Payload
Rocket body
Debris
Shape & HBR
Unknown shape, 0.1 m
Radar Cross Section
Medium (>0.1 m² and <1 m²)

Expand to show TLE details & history
Last TLE update: 18 hours ago

TLE from 18 hours ago
0 DMSP 5D-2 F13 DEB
1 40527U 95015DP  26149.81155916  .00004959  00000-0  20628-2 0  9993
2 40527  98.9488 146.0351 0042025  79.2875 281.3032 14.26343403576015
Epoch: 2026-05-29T19:28Z
TLE epoch observation values (Epoch: 2026-05-29T19:28:38.711Z)
Latitude
-0.00001°
Longitude
-33.46277°
Altitude
801.1 km
Speed
7.456 km/s
True Right ascension
09h 44m 08s
True Declination
0° 00' 00"
Sunlit
Object was in daylight at epoch
Visualization orbit readout
Latitude
Unknown
Longitude
Unknown
Altitude
Unknown
Speed
Unknown
Apparent Right ascension
Unknown
Apparent Declination
Unknown
Sunlit
N/A
Visualization observer readout
Local Sidereal Time
22:56:14
Azimuth
Unknown
Elevation
Unknown
Doppler factor
Unknown
Orbital elements
Apogee altitude
831.312 km
Perigee altitude
770.97 km
Semi-major axis
7,179.278 km
Eccentricity
0.0042
Inclination
98.9488°
RAAN
146.0351°
Arg. of periapsis
79.2875°
True anomaly
280.83049°
Mean anomaly
281.3032°
Eccentric anomaly
281.06689°
Mean motion
3.56798 °/min
Orbital period
100.9 mins
BSTAR
0.0020628
Loading maneuver chart data...
Computing Atmospheric mass density...

Documentation

Showing up to 5 results
|